Weather History for Cork, Ireland

Change the Weather History Date:

Monday, July 22, 2013

  Actual Average Record
Temperature  
Mean Temperature 63 °F -  
Max Temperature 67 °F 65 °F 73 °F (1997)
Min Temperature 59 °F 52 °F 3 °F (2001)
Degree Days  
Heating Degree Days 2    
Growing Degree Days 13 (Base 50)    
Moisture  
Dew Point 61 °F    
Average Humidity 95    
Maximum Humidity 100    
Minimum Humidity 82    
Precipitation  
Precipitation 0.02 in 0.11 in - ()
Sea Level Pressure  
Sea Level Pressure 29.93 in    
Wind  
Wind Speed 7 mph ()    
Max Wind Speed 10 mph    
Max Gust Speed -    
Visibility 5.1 miles    
Events Fog , Rain    
Averages and records for this station are not official NWS values.
T = Trace of Precipitation, MM = Missing Value Source: Averaged Metar Reports

Daily Weather History Graph

Daily Weather History Graph

Search for Another Location

Airport:

Trip Planner

Search our weather history database for the weather conditions in past years. The results will help you decide how hot, cold, wet, or windy it might be!

Date:

Astronomy

Jul. 22, 2013 Rise Set
Actual Time 5:41 AM IST 9:38 PM IST
Civil Twilight 4:58 AM IST 10:21 PM IST
Nautical Twilight 3:56 AM IST 11:22 PM IST
Astronomical Twilight 2:12 AM IST 1:25 AM IST
Moon 9:01 PM IST (7/22) 5:29 AM IST (7/22)
Length of Visible Light 17h 23m
Length of Day
15h 56m
Full, 100% of the Moon is Illuminated
Jul 22
Full
Jul 22
Full
Jul 29
Last Quarter
Aug 6
New
Aug 14
First Quarter

Hourly Weather History & Observations

Time (IST) Temp. Dew Point Humidity Pressure Visibility Wind Dir Wind Speed Gust Speed Precip Events Conditions
12:00 AM 62.6 °F 57.2 °F 82% 30.01 in 6.2 mi East 8.1 mph - N/A   Mostly Cloudy
12:30 AM 60.8 °F 57.2 °F 88% 30.01 in 6.2 mi East 9.2 mph - N/A   Mostly Cloudy
1:00 AM 61 °F 58 °F 88% 30.00 in 25 mi East 6.7 mph - -   Mostly Cloudy
1:00 AM 60.8 °F 59.0 °F 94% 29.98 in 6.2 mi East 6.9 mph - N/A   Mostly Cloudy
1:30 AM 60.8 °F 59.0 °F 94% 29.98 in 6.2 mi ESE 6.9 mph - N/A   Mostly Cloudy
2:00 AM 60.8 °F 59.0 °F 94% 29.98 in 6.2 mi East 8.1 mph - N/A   Mostly Cloudy
2:30 AM 60.8 °F 59.0 °F 94% 29.98 in 6.2 mi East 8.1 mph - N/A   Mostly Cloudy
3:00 AM 60.8 °F 57.2 °F 88% 29.95 in 6.2 mi East 8.1 mph - N/A   Mostly Cloudy
3:30 AM 60.8 °F 59.0 °F 94% 29.95 in 6.2 mi ENE 4.6 mph - N/A   Mostly Cloudy
4:00 AM 60.8 °F 59.0 °F 94% 29.95 in 6.2 mi East 4.6 mph - N/A   Mostly Cloudy
4:30 AM 60.8 °F 59.0 °F 94% 29.95 in 6.2 mi ENE 5.8 mph - N/A   Mostly Cloudy
5:00 AM 60.8 °F 59.0 °F 94% 29.95 in 6.2 mi ENE 6.9 mph - N/A   Mostly Cloudy
5:30 AM 60.8 °F 59.0 °F 94% 29.92 in 4.3 mi East 8.1 mph - N/A   Mostly Cloudy
6:00 AM 60.8 °F 59.0 °F 94% 29.92 in 3.1 mi East 8.1 mph - N/A   Overcast
6:30 AM 60.8 °F 59.0 °F 94% 29.92 in 1.6 mi ENE 9.2 mph - N/A   Light Drizzle
7:00 AM 60 °F 60 °F 100% 29.93 in 2 mi ENE 8.9 mph - - Rain Light Drizzle
7:00 AM 60.8 °F 60.8 °F 100% 29.92 in 1.6 mi ENE 9.2 mph - N/A   Light Drizzle
7:30 AM 60.8 °F 60.8 °F 100% 29.92 in 1.9 mi NE 6.9 mph - N/A   Light Drizzle
8:00 AM 60.8 °F 60.8 °F 100% 29.92 in 1.2 mi ENE 8.1 mph - N/A   Light Drizzle
8:30 AM 62.6 °F 62.6 °F 100% 29.92 in 0.7 mi East 8.1 mph - N/A   Light Drizzle
9:00 AM 62.6 °F 62.6 °F 100% 29.92 in 0.3 mi East 6.9 mph - N/A Fog Light Drizzle
9:30 AM 62.6 °F 62.6 °F 100% 29.92 in 0.7 mi SE 8.1 mph - N/A   Light Drizzle
10:00 AM 62.6 °F 62.6 °F 100% 29.92 in 1.1 mi SSE 9.2 mph - N/A   Light Drizzle
10:30 AM 62.6 °F 62.6 °F 100% 29.92 in 1.6 mi SSE 10.4 mph - N/A   Light Drizzle
11:00 AM 62.6 °F 62.6 °F 100% 29.95 in 4.3 mi SSE 8.1 mph - N/A Rain Light Rain
11:30 AM 62.6 °F 62.6 °F 100% 29.92 in 6.2 mi SE 10.4 mph - N/A   Mostly Cloudy
12:00 PM 62.6 °F 62.6 °F 100% 29.92 in 4.3 mi SSE 10.4 mph - N/A   Light Drizzle
12:30 PM 62.6 °F 62.6 °F 100% 29.92 in 3.7 mi South 10.4 mph - N/A   Light Drizzle
1:00 PM 63 °F 63 °F 98% 29.94 in 6 mi South 8.9 mph - - Rain Light Drizzle
1:00 PM 62.6 °F 62.6 °F 100% 29.92 in 5.6 mi South 8.1 mph - N/A   Light Drizzle
1:30 PM 64.4 °F 64.4 °F 100% 29.92 in 4.3 mi South 9.2 mph - N/A   Mostly Cloudy
2:00 PM 64.4 °F 64.4 °F 100% 29.92 in 6.2 mi South 9.2 mph - N/A   Mostly Cloudy
2:30 PM 64.4 °F 64.4 °F 100% 29.92 in 6.2 mi South 8.1 mph - N/A   Mostly Cloudy
3:00 PM 64.4 °F 64.4 °F 100% 29.92 in 6.2 mi SSW 6.9 mph - N/A   Mostly Cloudy
3:30 PM 64.4 °F 64.4 °F 100% 29.92 in 6.2 mi South 8.1 mph - N/A   Mostly Cloudy
4:00 PM 66.2 °F 64.4 °F 94% 29.92 in 6.2 mi South 6.9 mph - N/A   Mostly Cloudy
4:30 PM 66.2 °F 62.6 °F 88% 29.92 in 6.2 mi South 9.2 mph - N/A   Mostly Cloudy
5:00 PM 66.2 °F 62.6 °F 88% 29.92 in 6.2 mi South 9.2 mph - N/A   Mostly Cloudy
5:30 PM 66.2 °F 62.6 °F 88% 29.92 in 6.2 mi South 10.4 mph - N/A   Mostly Cloudy
6:00 PM 66.2 °F 62.6 °F 88% 29.92 in 6.2 mi SSW 10.4 mph - N/A   Mostly Cloudy
6:30 PM 66.2 °F 62.6 °F 88% 29.92 in 6.2 mi SSW 10.4 mph - N/A   Mostly Cloudy
7:00 PM 66 °F 62 °F 85% 29.91 in 16 mi South 8.9 mph - -   Partly Cloudy
7:00 PM 66.2 °F 62.6 °F 88% 29.92 in 6.2 mi South 9.2 mph - N/A   Mostly Cloudy
7:30 PM 64.4 °F 60.8 °F 88% 29.92 in 6.2 mi South 9.2 mph - N/A   Mostly Cloudy
8:00 PM 64.4 °F 60.8 °F 88% 29.92 in 6.2 mi South 8.1 mph - N/A   Mostly Cloudy
8:30 PM 64.4 °F 60.8 °F 88% 29.92 in 6.2 mi South 8.1 mph - N/A   Mostly Cloudy
9:00 PM 62.6 °F 60.8 °F 94% 29.92 in 6.2 mi South 4.6 mph - N/A   Mostly Cloudy
9:30 PM 62.6 °F 60.8 °F 94% 29.92 in 6.2 mi SE 5.8 mph - N/A   Mostly Cloudy
10:00 PM 62.6 °F 60.8 °F 94% 29.92 in 6.2 mi SE 5.8 mph - N/A   Mostly Cloudy
10:30 PM 60.8 °F 60.8 °F 100% 29.92 in 6.2 mi SSE 8.1 mph - N/A   Mostly Cloudy
11:00 PM 60.8 °F 60.8 °F 100% 29.89 in 6.2 mi SSE 6.9 mph - N/A   Mostly Cloudy
11:30 PM 60.8 °F 60.8 °F 100% 29.89 in 5.0 mi SSE 6.9 mph - N/A   Mostly Cloudy